Tracking 32420 objects as of 8-Dec-2025
HD Live streaming from Space Station
objects crossing your sky now

STARLINK-30152

Track STARLINK-30152 now!
10-day predictions
STARLINK-30152 is classified as:


NORAD ID: 56828
Int'l Code: 2023-079F
Perigee: 565.5 km
Apogee: 567.0 km
Inclination: 43.0 °
Period: 95.8 minutes
Semi major axis: 6937 km
RCS: Unknown
Launch date: June 4, 2023
Source: United States (US)
Launch site: AIR FORCE EASTERN TEST RANGE (AFETR)
Your satellite tracking list
Your tracking list is empty




NASA's NSSDC Master Catalog

Two Line Element Set (TLE):
1 56828U 23079F   25342.07257168 -.00001254  00000-0 -77824-4 0  9998
2 56828  43.0036 245.1263 0001121 267.6238  92.4476 15.02524853139100
Source of the keplerian elements: AFSPC